Location: Grand Rapids
(42.9630°N, 85.6680°W)
Time: 01:49:42
(UTC-04:00)

A-11 Canister half - Pass Details

Date: 08 June 2024
Orbit: 1524 x 1684 km, 47.3° (Epoch: 21 June)

Event Time Altitude Azimuth Distance (km) Brightness Sun altitude
Rises 18:30:51 0° 238° (WSW) 4,678 12.3 28.1°
Reaches altitude 10° 18:33:53 10° 238° (WSW) 3,690 11.9 27.6°
Maximum altitude 18:43:10 82° 153° (SSE) 1,543 9.4 25.9°
Drops below altitude 10° 18:52:33 10° 67° (ENE) 3,724 10.6 24.2°
Sets 18:55:38 0° 67° (ENE) 4,724 11.1 23.6°
